User: anonymous   Login
Location: Vancouver
(49.2500°N, 123.1330°W)
Time: 17:48:59
(UTC-07:00)
Language:

Cosmos 676 Rocket - Orbit

View from above orbital plane
View from above orbital plane
View from above satellite
View from above satellite

Ground track
Ground track

The orbit data is extracted from the following two-line orbital elements,

1  7434U 74071B   17232.14938040 +.00000094 +00000-0 +40752-4 0  9996
2  7434 074.0462 096.5668 0020841 348.7577 011.3108 14.36636371245622
Epoch (UTC): 20 August 2017 03:35:06
Eccentricity: 0.0020841
inclination: 74.0462°
perigee height: 755 km
apogee height: 784 km
right ascension of ascending node: 96.5668°
argument of perigee: 348.7577°
revolutions per day: 14.36636371
mean anomaly at epoch: 11.3108°
orbit number at epoch: 24562

The dashed part of the orbit path shows where the satellite is in the earth's shadow,  

DLR